Language: 


Des rapports , des résumés tant et plus, au choix de chacun....


Données Historiques de Météogheer
Journalier Rapport pour Février 13, 2018 Unitée:  Métrique    Impériale   Les deux
Suivant Jour »
Journalier Hebdomadaire Mensuel Annuel Sur mesure
  Max: Min: Moyenne:
Température: 7.0 °C 0.4 °C 2.9 °C
Point de rosée: 0.0 °C -4.0 °C -1.6 °C
Humidité: 91% 49% 73%
Vent: 40.4km/h 0.0km/h 12.9km/h
Rafales: 42.5km/h - -
Vent- - South
Pression: 1014.1 hPa 1003.9 hPa -
Pluie: 0.0 mm    
Historical Graphs
 
 
Données tabulaires pour Février 13, 2018
Heure Température Point de rosée Pression Vent Vent Rafales Humidité Pluie Taux (Horaire) Conditions
00:04 0.7 °C -1.0 °C 1014.1 hPa Calm   5.5 km/h 86% 0.0 mm
00:09 0.7 °C -1.0 °C 1014.1 hPa Calm   5.5 km/h 86% 0.0 mm
00:14 0.7 °C -1.0 °C 1014.1 hPa Calm   6.1 km/h 87% 0.0 mm
00:19 0.8 °C -1.0 °C 1014.1 hPa Calm   10.1 km/h 88% 0.0 mm
00:24 0.8 °C -1.0 °C 1014.1 hPa South 7.2 km/h 10.1 km/h 88% 0.0 mm
00:29 0.8 °C -1.0 °C 1014.1 hPa South 5.8 km/h 9.7 km/h 88% 0.0 mm
00:34 0.9 °C 0.0 °C 1014.1 hPa Calm   9.7 km/h 89% 0.0 mm
00:39 0.9 °C 0.0 °C 1014.1 hPa South 6.1 km/h 7.9 km/h 89% 0.0 mm
00:44 0.9 °C 0.0 °C 1014.1 hPa South 6.1 km/h 10.1 km/h 89% 0.0 mm
00:49 1.0 °C 0.0 °C 1014.1 hPa SSW 4.7 km/h 10.1 km/h 89% 0.0 mm
00:54 1.0 °C 0.0 °C 1014.1 hPa Calm   10.1 km/h 89% 0.0 mm
00:59 1.0 °C 0.0 °C 1013.1 hPa South 7.9 km/h 10.5 km/h 89% 0.0 mm
01:04 1.1 °C 0.0 °C 1013.1 hPa Calm   10.5 km/h 89% 0.0 mm
01:09 1.1 °C 0.0 °C 1013.1 hPa Calm   10.5 km/h 89% 0.0 mm
01:14 1.1 °C 0.0 °C 1013.1 hPa Calm   11.6 km/h 89% 0.0 mm
01:19 1.1 °C 0.0 °C 1013.1 hPa SSW 4.0 km/h 11.6 km/h 89% 0.0 mm
01:24 1.1 °C -1.0 °C 1013.1 hPa South 5.5 km/h 11.9 km/h 88% 0.0 mm
01:29 1.1 °C -1.0 °C 1013.1 hPa South 10.1 km/h 11.9 km/h 88% 0.0 mm
01:34 1.1 °C -1.0 °C 1013.1 hPa SSW 10.1 km/h 10.5 km/h 88% 0.0 mm
01:39 1.2 °C 0.0 °C 1013.1 hPa SSW 6.9 km/h 11.6 km/h 88% 0.0 mm
01:44 1.1 °C -1.0 °C 1013.1 hPa WSW 7.9 km/h 11.9 km/h 88% 0.0 mm
01:49 1.1 °C -1.0 °C 1013.1 hPa SSW 3.2 km/h 13.0 km/h 88% 0.0 mm
01:54 1.2 °C 0.0 °C 1013.1 hPa Calm   15.8 km/h 88% 0.0 mm
01:59 1.2 °C 0.0 °C 1013.1 hPa SSW 5.0 km/h 15.8 km/h 88% 0.0 mm
02:04 1.1 °C -1.0 °C 1013.1 hPa South 10.1 km/h 14.0 km/h 88% 0.0 mm
02:09 1.1 °C -1.0 °C 1013.1 hPa South 11.9 km/h 12.6 km/h 88% 0.0 mm
02:14 1.1 °C -1.0 °C 1013.1 hPa SSW 9.0 km/h 13.0 km/h 88% 0.0 mm
02:20 1.1 °C -1.0 °C 1013.1 hPa SSW 5.8 km/h 13.0 km/h 88% 0.0 mm
02:25 1.1 °C -1.0 °C 1013.1 hPa SSW 9.7 km/h 13.0 km/h 88% 0.0 mm
02:30 1.1 °C -1.0 °C 1013.1 hPa SSE 10.1 km/h 12.6 km/h 88% 0.0 mm
02:35 1.0 °C -1.0 °C 1013.1 hPa South 9.0 km/h 13.0 km/h 88% 0.0 mm
02:40 1.0 °C -1.0 °C 1013.1 hPa SSW 11.9 km/h 13.0 km/h 88% 0.0 mm
02:45 1.0 °C -1.0 °C 1013.1 hPa South 9.7 km/h 12.6 km/h 88% 0.0 mm
02:50 1.0 °C -1.0 °C 1013.1 hPa South 6.1 km/h 12.6 km/h 88% 0.0 mm
02:55 0.9 °C 0.0 °C 1013.1 hPa South 8.7 km/h 11.6 km/h 89% 0.0 mm
03:00 0.9 °C 0.0 °C 1012.1 hPa South 9.0 km/h 11.9 km/h 89% 0.0 mm
03:05 0.8 °C 0.0 °C 1012.1 hPa SSW 11.6 km/h 14.0 km/h 89% 0.0 mm
03:10 0.8 °C 0.0 °C 1012.1 hPa South 11.9 km/h 14.0 km/h 89% 0.0 mm
03:15 0.9 °C 0.0 °C 1011.1 hPa South 14.8 km/h 14.8 km/h 89% 0.0 mm
03:20 0.9 °C 0.0 °C 1011.1 hPa SSW 12.6 km/h 14.8 km/h 89% 0.0 mm
03:25 0.9 °C 0.0 °C 1011.1 hPa SSW 5.5 km/h 15.4 km/h 89% 0.0 mm
03:30 0.9 °C 0.0 °C 1011.1 hPa SSW 9.3 km/h 15.4 km/h 89% 0.0 mm
03:35 0.9 °C 0.0 °C 1011.1 hPa SSW 8.7 km/h 15.4 km/h 89% 0.0 mm
03:40 1.0 °C -1.0 °C 1011.1 hPa SSW 10.1 km/h 15.4 km/h 88% 0.0 mm
03:45 1.0 °C -1.0 °C 1011.1 hPa South 10.1 km/h 16.6 km/h 88% 0.0 mm
03:50 1.0 °C -1.0 °C 1011.1 hPa Calm   19.8 km/h 88% 0.0 mm
03:55 1.0 °C -1.0 °C 1011.1 hPa SSW 7.9 km/h 19.8 km/h 88% 0.0 mm
04:00 1.0 °C -1.0 °C 1011.1 hPa South 18.3 km/h 19.8 km/h 87% 0.0 mm
04:05 1.1 °C -1.0 °C 1011.1 hPa SSE 13.0 km/h 19.8 km/h 87% 0.0 mm
04:10 1.0 °C -1.0 °C 1011.1 hPa South 7.9 km/h 14.8 km/h 87% 0.0 mm
04:15 1.0 °C -1.0 °C 1011.1 hPa SSW 10.5 km/h 15.4 km/h 87% 0.0 mm
04:21 1.0 °C -1.0 °C 1011.1 hPa South 10.5 km/h 20.1 km/h 87% 0.0 mm
04:26 1.0 °C -1.0 °C 1011.1 hPa South 9.3 km/h 20.1 km/h 87% 0.0 mm
04:31 0.9 °C -1.0 °C 1011.1 hPa South 8.7 km/h 17.2 km/h 87% 0.0 mm
04:36 0.9 °C -1.0 °C 1011.1 hPa South 10.1 km/h 15.1 km/h 87% 0.0 mm
04:41 0.8 °C -1.0 °C 1011.1 hPa South 11.9 km/h 15.4 km/h 88% 0.0 mm
04:46 0.8 °C -1.0 °C 1010.0 hPa South 6.9 km/h 15.4 km/h 88% 0.0 mm
04:51 0.8 °C -1.0 °C 1010.0 hPa South 9.3 km/h 19.5 km/h 88% 0.0 mm
04:56 0.8 °C -1.0 °C 1010.0 hPa SSW 6.9 km/h 19.5 km/h 88% 0.0 mm
05:01 0.8 °C 0.0 °C 1010.0 hPa SSW 6.4 km/h 16.6 km/h 89% 0.0 mm
05:06 0.7 °C -1.0 °C 1010.0 hPa SSW 6.4 km/h 15.1 km/h 89% 0.0 mm
05:11 0.7 °C -1.0 °C 1010.0 hPa South 7.9 km/h 17.7 km/h 89% 0.0 mm
05:16 0.7 °C -1.0 °C 1010.0 hPa South 8.7 km/h 17.7 km/h 89% 0.0 mm
05:21 0.7 °C -1.0 °C 1010.0 hPa SSW 12.6 km/h 16.6 km/h 89% 0.0 mm
05:26 0.7 °C -1.0 °C 1010.0 hPa SSE 8.7 km/h 17.7 km/h 89% 0.0 mm
05:31 0.7 °C -1.0 °C 1010.0 hPa South 9.7 km/h 17.7 km/h 89% 0.0 mm
05:36 0.7 °C -1.0 °C 1010.0 hPa SSE 8.7 km/h 15.4 km/h 89% 0.0 mm
05:41 0.7 °C -1.0 °C 1010.0 hPa South 8.7 km/h 14.0 km/h 89% 0.0 mm
05:46 0.7 °C -1.0 °C 1010.0 hPa SSW 12.6 km/h 14.0 km/h 89% 0.0 mm
05:51 0.7 °C -1.0 °C 1010.0 hPa SSW 7.9 km/h 16.6 km/h 89% 0.0 mm
05:56 0.6 °C -1.0 °C 1010.0 hPa South 13.0 km/h 16.6 km/h 89% 0.0 mm
06:01 0.6 °C -1.0 °C 1009.0 hPa South 12.6 km/h 14.0 km/h 90% 0.0 mm
06:06 0.6 °C -1.0 °C 1009.0 hPa SSE 8.7 km/h 14.3 km/h 90% 0.0 mm
06:11 0.5 °C -1.0 °C 1009.0 hPa South 6.1 km/h 14.3 km/h 90% 0.0 mm
06:16 0.4 °C -1.0 °C 1009.0 hPa SSW 9.3 km/h 13.0 km/h 90% 0.0 mm
06:21 0.4 °C -1.0 °C 1009.0 hPa SSE 9.3 km/h 13.7 km/h 90% 0.0 mm
06:27 0.4 °C -1.0 °C 1009.0 hPa South 12.2 km/h 13.7 km/h 91% 0.0 mm
06:32 0.4 °C -1.0 °C 1009.0 hPa SSW 6.9 km/h 17.7 km/h 91% 0.0 mm
06:37 0.4 °C -1.0 °C 1009.0 hPa SSW 10.1 km/h 17.7 km/h 91% 0.0 mm
06:42 0.5 °C 0.0 °C 1009.0 hPa SSW 10.1 km/h 17.7 km/h 91% 0.0 mm
06:47 0.5 °C 0.0 °C 1009.0 hPa SSE 18.0 km/h 18.0 km/h 91% 0.0 mm
06:52 0.5 °C 0.0 °C 1009.0 hPa South 10.5 km/h 19.8 km/h 91% 0.0 mm
06:57 0.5 °C 0.0 °C 1009.0 hPa SSE 4.3 km/h 19.8 km/h 91% 0.0 mm
07:02 0.5 °C 0.0 °C 1009.0 hPa SSE 8.7 km/h 19.5 km/h 91% 0.0 mm
07:07 0.5 °C 0.0 °C 1009.0 hPa South 12.6 km/h 20.1 km/h 91% 0.0 mm
07:12 0.5 °C 0.0 °C 1009.0 hPa SSE 10.1 km/h 20.1 km/h 91% 0.0 mm
07:17 0.4 °C -1.0 °C 1009.0 hPa South 7.2 km/h 19.5 km/h 91% 0.0 mm
07:22 0.5 °C 0.0 °C 1009.0 hPa SSW 9.0 km/h 17.7 km/h 91% 0.0 mm
07:27 0.5 °C 0.0 °C 1009.0 hPa SSE 14.8 km/h 19.8 km/h 91% 0.0 mm
07:32 0.5 °C -1.0 °C 1009.0 hPa SSE 9.3 km/h 19.8 km/h 90% 0.0 mm
07:37 0.5 °C -1.0 °C 1009.0 hPa South 11.9 km/h 17.2 km/h 90% 0.0 mm
07:42 0.5 °C -1.0 °C 1009.0 hPa South 15.4 km/h 20.1 km/h 90% 0.0 mm
07:47 0.5 °C -1.0 °C 1008.0 hPa SE 14.8 km/h 20.1 km/h 90% 0.0 mm
07:52 0.6 °C 0.0 °C 1008.0 hPa SSE 9.0 km/h 19.1 km/h 91% 0.0 mm
07:57 0.6 °C 0.0 °C 1008.0 hPa South 15.4 km/h 16.6 km/h 91% 0.0 mm
08:02 0.6 °C -1.0 °C 1009.0 hPa SSE 13.7 km/h 19.8 km/h 90% 0.0 mm
08:07 0.6 °C -1.0 °C 1009.0 hPa South 10.1 km/h 19.8 km/h 90% 0.0 mm
08:12 0.6 °C -1.0 °C 1009.0 hPa SSE 9.0 km/h 16.6 km/h 90% 0.0 mm
08:17 0.6 °C -1.0 °C 1009.0 hPa SSE 7.9 km/h 16.6 km/h 90% 0.0 mm
08:22 0.6 °C -1.0 °C 1009.0 hPa South 9.0 km/h 16.9 km/h 90% 0.0 mm
08:27 0.7 °C -1.0 °C 1009.0 hPa SSW 9.7 km/h 20.9 km/h 90% 0.0 mm
08:32 0.8 °C 0.0 °C 1008.0 hPa South 12.2 km/h 20.9 km/h 90% 0.0 mm
08:37 0.9 °C 0.0 °C 1008.0 hPa South 14.0 km/h 20.1 km/h 90% 0.0 mm
08:42 1.0 °C 0.0 °C 1008.0 hPa SSW 6.4 km/h 20.1 km/h 89% 0.0 mm
08:47 1.1 °C 0.0 °C 1008.0 hPa SSE 9.0 km/h 23.8 km/h 89% 0.0 mm
08:52 1.3 °C 0.0 °C 1008.0 hPa South 15.4 km/h 23.8 km/h 88% 0.0 mm
08:57 1.4 °C 0.0 °C 1008.0 hPa South 8.7 km/h 23.3 km/h 88% 0.0 mm
09:02 1.6 °C 0.0 °C 1008.0 hPa SSE 15.8 km/h 19.8 km/h 87% 0.0 mm
09:08 1.7 °C 0.0 °C 1008.0 hPa SSE 9.7 km/h 19.8 km/h 86% 0.0 mm
09:13 1.9 °C 0.0 °C 1008.0 hPa South 14.0 km/h 19.8 km/h 86% 0.0 mm
09:18 2.0 °C 0.0 °C 1007.0 hPa South 13.7 km/h 27.4 km/h 84% 0.0 mm
09:23 2.1 °C 0.0 °C 1007.0 hPa South 10.1 km/h 27.4 km/h 83% 0.0 mm
09:28 2.2 °C 0.0 °C 1007.0 hPa SSE 9.7 km/h 24.5 km/h 82% 0.0 mm
09:33 2.4 °C 0.0 °C 1008.0 hPa South 10.1 km/h 22.4 km/h 81% 0.0 mm
09:38 2.6 °C 0.0 °C 1008.0 hPa SSW 20.1 km/h 22.4 km/h 80% 0.0 mm
09:43 2.7 °C 0.0 °C 1008.0 hPa SSW 16.3 km/h 20.9 km/h 79% 0.0 mm
09:48 2.7 °C -1.0 °C 1007.0 hPa SW 19.8 km/h 24.8 km/h 78% 0.0 mm
09:53 2.8 °C 0.0 °C 1007.0 hPa South 16.6 km/h 25.9 km/h 78% 0.0 mm
09:58 2.8 °C 0.0 °C 1007.0 hPa SSE 16.9 km/h 25.6 km/h 77% 0.0 mm
10:03 2.8 °C 0.0 °C 1007.0 hPa SSW 17.2 km/h 38.5 km/h 77% 0.0 mm
10:08 2.9 °C 0.0 °C 1007.0 hPa South 10.1 km/h 38.5 km/h 77% 0.0 mm
10:14 3.0 °C -1.0 °C 1007.0 hPa SSE 16.6 km/h 28.8 km/h 76% 0.0 mm
10:19 3.1 °C -1.0 °C 1007.0 hPa SSW 15.1 km/h 28.8 km/h 76% 0.0 mm
10:24 3.2 °C 0.0 °C 1007.0 hPa SSE 19.5 km/h 30.9 km/h 75% 0.0 mm
10:29 3.5 °C 0.0 °C 1007.0 hPa South 11.9 km/h 30.9 km/h 74% 0.0 mm
10:34 3.5 °C 0.0 °C 1007.0 hPa South 22.4 km/h 24.5 km/h 74% 0.0 mm
10:39 3.5 °C -1.0 °C 1007.0 hPa South 18.0 km/h 27.7 km/h 73% 0.0 mm
10:44 3.7 °C -1.0 °C 1007.0 hPa South 15.4 km/h 27.7 km/h 73% 0.0 mm
10:49 3.7 °C -1.0 °C 1007.0 hPa SSW 12.2 km/h 31.7 km/h 72% 0.0 mm
10:54 3.9 °C 0.0 °C 1007.0 hPa South 14.0 km/h 31.7 km/h 72% 0.0 mm
10:59 4.1 °C -1.0 °C 1007.0 hPa SSW 9.0 km/h 28.5 km/h 71% 0.0 mm
11:04 4.1 °C -1.0 °C 1007.0 hPa South 20.9 km/h 28.5 km/h 70% 0.0 mm
11:09 4.0 °C -1.0 °C 1007.0 hPa South 17.7 km/h 28.0 km/h 68% 0.0 mm
11:14 4.2 °C -1.0 °C 1007.0 hPa SSW 17.2 km/h 32.0 km/h 68% 0.0 mm
11:19 4.3 °C -1.0 °C 1007.0 hPa SSW 12.2 km/h 36.0 km/h 68% 0.0 mm
11:24 4.4 °C -1.0 °C 1007.0 hPa SSW 20.6 km/h 36.0 km/h 68% 0.0 mm
11:29 4.3 °C -1.0 °C 1007.0 hPa SSW 13.7 km/h 23.8 km/h 68% 0.0 mm
11:34 4.3 °C -1.0 °C 1007.0 hPa South 20.9 km/h 26.7 km/h 66% 0.0 mm
11:39 4.3 °C -1.0 °C 1007.0 hPa South 17.7 km/h 35.6 km/h 65% 0.0 mm
11:44 4.3 °C -2.0 °C 1007.0 hPa South 35.6 km/h 35.6 km/h 64% 0.0 mm
11:49 4.5 °C -1.0 °C 1007.0 hPa South 18.0 km/h 35.6 km/h 65% 0.0 mm
11:54 4.5 °C -1.0 °C 1007.0 hPa South 16.9 km/h 33.8 km/h 65% 0.0 mm
11:59 4.6 °C -1.0 °C 1007.0 hPa SSW 27.4 km/h 29.9 km/h 64% 0.0 mm
12:04 5.0 °C -1.0 °C 1007.0 hPa SSW 12.6 km/h 36.0 km/h 62% 0.0 mm
12:09 5.1 °C -2.0 °C 1007.0 hPa SSE 24.5 km/h 36.0 km/h 60% 0.0 mm
12:14 5.4 °C -1.0 °C 1006.0 hPa SSW 24.8 km/h 31.7 km/h 61% 0.0 mm
12:19 5.8 °C -1.0 °C 1006.0 hPa SSE 30.9 km/h 30.9 km/h 59% 0.0 mm
12:25 5.9 °C -2.0 °C 1006.0 hPa SSW 17.2 km/h 36.4 km/h 57% 0.0 mm
12:30 5.9 °C -2.0 °C 1006.0 hPa South 23.8 km/h 38.5 km/h 56% 0.0 mm
12:35 6.0 °C -2.0 °C 1006.0 hPa SSE 31.4 km/h 38.5 km/h 57% 0.0 mm
12:40 6.0 °C -2.0 °C 1006.0 hPa SSW 29.9 km/h 36.4 km/h 56% 0.0 mm
12:45 5.9 °C -2.0 °C 1006.0 hPa South 20.9 km/h 36.4 km/h 57% 0.0 mm
12:50 5.7 °C -2.0 °C 1006.0 hPa SSE 23.8 km/h 42.2 km/h 57% 0.0 mm
12:55 5.6 °C -2.0 °C 1006.0 hPa SSW 12.6 km/h 42.2 km/h 57% 0.0 mm
13:00 5.5 °C -2.0 °C 1005.0 hPa SSE 24.8 km/h 37.0 km/h 58% 0.0 mm
13:05 5.6 °C -2.0 °C 1005.0 hPa SSW 23.8 km/h 36.4 km/h 57% 0.0 mm
13:10 5.6 °C -2.0 °C 1005.0 hPa South 20.6 km/h 36.4 km/h 57% 0.0 mm
13:15 5.7 °C -2.0 °C 1005.0 hPa SSW 14.0 km/h 36.4 km/h 57% 0.0 mm
13:20 5.7 °C -3.0 °C 1005.0 hPa SSW 20.9 km/h 42.5 km/h 55% 0.0 mm
13:25 5.7 °C -2.0 °C 1005.0 hPa SSW 24.5 km/h 42.5 km/h 56% 0.0 mm
13:30 5.7 °C -2.0 °C 1005.0 hPa SSW 17.2 km/h 38.5 km/h 56% 0.0 mm
13:35 5.7 °C -3.0 °C 1005.0 hPa SSW 23.3 km/h 38.5 km/h 55% 0.0 mm
13:40 5.7 °C -3.0 °C 1005.0 hPa South 35.6 km/h 38.1 km/h 55% 0.0 mm
13:45 5.9 °C -2.0 °C 1005.0 hPa South 24.5 km/h 38.1 km/h 54% 0.0 mm
13:50 6.2 °C -2.0 °C 1005.0 hPa South 17.2 km/h 35.6 km/h 53% 0.0 mm
13:55 6.3 °C -3.0 °C 1005.0 hPa South 27.4 km/h 36.0 km/h 52% 0.0 mm
14:00 6.4 °C -3.0 °C 1005.0 hPa South 24.5 km/h 36.0 km/h 52% 0.0 mm
14:05 6.5 °C -2.0 °C 1005.0 hPa South 32.0 km/h 32.0 km/h 52% 0.0 mm
14:10 6.7 °C -2.0 °C 1005.0 hPa South 24.8 km/h 32.0 km/h 52% 0.0 mm
14:15 6.9 °C -2.0 °C 1005.0 hPa South 32.3 km/h 32.3 km/h 52% 0.0 mm
14:20 7.0 °C -2.0 °C 1005.0 hPa SSW 22.4 km/h 32.3 km/h 51% 0.0 mm
14:25 7.0 °C -2.0 °C 1005.0 hPa SSW 16.9 km/h 35.6 km/h 51% 0.0 mm
14:30 6.8 °C -3.0 °C 1003.9 hPa South 40.4 km/h 40.4 km/h 51% 0.0 mm
14:36 6.8 °C -3.0 °C 1003.9 hPa South 20.6 km/h 40.4 km/h 50% 0.0 mm
14:41 6.8 °C -3.0 °C 1003.9 hPa SSW 20.1 km/h 34.6 km/h 51% 0.0 mm
14:46 6.8 °C -3.0 °C 1003.9 hPa South 24.5 km/h 33.1 km/h 51% 0.0 mm
14:51 6.9 °C -2.0 °C 1003.9 hPa SSW 14.0 km/h 33.1 km/h 51% 0.0 mm
14:56 6.5 °C -3.0 °C 1003.9 hPa SSW 16.3 km/h 30.6 km/h 50% 0.0 mm
15:01 6.5 °C -3.0 °C 1005.0 hPa South 20.6 km/h 39.3 km/h 49% 0.0 mm
15:06 6.8 °C -3.0 °C 1005.0 hPa SSE 20.6 km/h 39.3 km/h 50% 0.0 mm
15:11 6.9 °C -3.0 °C 1005.0 hPa South 21.9 km/h 28.0 km/h 50% 0.0 mm
15:16 6.9 °C -3.0 °C 1005.0 hPa South 19.8 km/h 30.2 km/h 50% 0.0 mm
15:21 6.8 °C -3.0 °C 1005.0 hPa SSE 19.8 km/h 32.3 km/h 50% 0.0 mm
15:26 6.3 °C -3.0 °C 1005.0 hPa South 14.0 km/h 32.3 km/h 50% 0.0 mm
15:31 5.9 °C -3.0 °C 1005.0 hPa SSE 21.6 km/h 36.4 km/h 50% 0.0 mm
15:36 5.8 °C -3.0 °C 1005.0 hPa SSE 15.4 km/h 36.4 km/h 52% 0.0 mm
15:41 5.7 °C -3.0 °C 1005.0 hPa South 10.1 km/h 27.7 km/h 52% 0.0 mm
15:46 5.6 °C -3.0 °C 1005.0 hPa SSE 20.6 km/h 26.2 km/h 51% 0.0 mm
15:51 5.7 °C -3.0 °C 1005.0 hPa South 13.7 km/h 26.2 km/h 51% 0.0 mm
15:56 5.7 °C -3.0 °C 1005.0 hPa SSE 28.0 km/h 31.7 km/h 52% 0.0 mm
16:01 5.7 °C -3.0 °C 1005.0 hPa SSE 16.9 km/h 31.7 km/h 54% 0.0 mm
16:06 5.7 °C -3.0 °C 1005.0 hPa SSW 20.6 km/h 27.4 km/h 54% 0.0 mm
16:11 5.7 °C -3.0 °C 1005.0 hPa South 10.1 km/h 34.6 km/h 53% 0.0 mm
16:16 5.7 °C -3.0 °C 1005.0 hPa SSW 23.8 km/h 34.6 km/h 52% 0.0 mm
16:21 5.6 °C -3.0 °C 1005.0 hPa SSW 12.6 km/h 24.8 km/h 53% 0.0 mm
16:26 5.6 °C -3.0 °C 1005.0 hPa SSE 13.0 km/h 24.5 km/h 53% 0.0 mm
16:31 5.4 °C -3.0 °C 1005.0 hPa South 25.6 km/h 37.0 km/h 53% 0.0 mm
16:36 5.3 °C -3.0 °C 1005.0 hPa South 21.6 km/h 37.0 km/h 54% 0.0 mm
16:41 5.1 °C -3.0 °C 1005.0 hPa South 38.5 km/h 41.0 km/h 54% 0.0 mm
16:46 4.9 °C -3.0 °C 1005.0 hPa SSE 18.3 km/h 41.0 km/h 55% 0.0 mm
16:51 4.8 °C -3.0 °C 1005.0 hPa SSW 28.0 km/h 38.5 km/h 56% 0.0 mm
16:52 4.8 °C -3.0 °C 1005.0 hPa SSE 13.0 km/h 33.8 km/h 56% 0.0 mm
16:58 4.7 °C -3.0 °C 1005.0 hPa SSE 19.5 km/h 31.4 km/h 57% 0.0 mm
17:03 4.7 °C -4.0 °C 1006.0 hPa SSE 19.1 km/h 28.8 km/h 55% 0.0 mm
17:08 4.7 °C -3.0 °C 1006.0 hPa South 9.7 km/h 28.8 km/h 56% 0.0 mm
17:13 4.6 °C -3.0 °C 1006.0 hPa SSE 11.1 km/h 28.5 km/h 56% 0.0 mm
17:18 4.6 °C -4.0 °C 1003.9 hPa South 14.8 km/h 28.5 km/h 55% 0.0 mm
17:23 4.5 °C -4.0 °C 1003.9 hPa SSE 13.7 km/h 30.2 km/h 54% 0.0 mm
17:28 4.5 °C -4.0 °C 1003.9 hPa South 21.2 km/h 30.2 km/h 55% 0.0 mm
17:33 4.5 °C -4.0 °C 1005.0 hPa SSE 9.7 km/h 28.5 km/h 53% 0.0 mm
17:38 4.5 °C -4.0 °C 1005.0 hPa SSE 20.6 km/h 28.5 km/h 54% 0.0 mm
17:43 4.5 °C -4.0 °C 1005.0 hPa SSE 19.5 km/h 20.9 km/h 54% 0.0 mm
17:48 4.4 °C -4.0 °C 1006.0 hPa SSE 17.2 km/h 20.9 km/h 54% 0.0 mm
17:53 4.4 °C -4.0 °C 1006.0 hPa SSE 11.6 km/h 22.7 km/h 53% 0.0 mm
17:58 4.4 °C -4.0 °C 1006.0 hPa SE 8.7 km/h 22.7 km/h 53% 0.0 mm
18:03 4.4 °C -4.0 °C 1005.0 hPa SSE 14.0 km/h 19.8 km/h 53% 0.0 mm
18:08 4.4 °C -4.0 °C 1005.0 hPa SSE 25.3 km/h 25.3 km/h 53% 0.0 mm
18:13 4.4 °C -4.0 °C 1005.0 hPa South 11.9 km/h 25.3 km/h 53% 0.0 mm
18:18 4.4 °C -4.0 °C 1003.9 hPa South 9.3 km/h 29.9 km/h 54% 0.0 mm
18:24 4.4 °C -4.0 °C 1003.9 hPa SSE 17.2 km/h 29.9 km/h 55% 0.0 mm
18:29 4.4 °C -4.0 °C 1005.0 hPa SSE 12.6 km/h 25.6 km/h 54% 0.0 mm
18:34 4.3 °C -4.0 °C 1005.0 hPa SSE 21.9 km/h 25.6 km/h 54% 0.0 mm
18:39 4.3 °C -4.0 °C 1005.0 hPa SSE 7.9 km/h 28.0 km/h 55% 0.0 mm
18:44 4.3 °C -4.0 °C 1005.0 hPa SSE 13.0 km/h 28.0 km/h 55% 0.0 mm
18:49 4.2 °C -4.0 °C 1005.0 hPa South 13.0 km/h 25.3 km/h 56% 0.0 mm
18:54 4.2 °C -3.0 °C 1005.0 hPa South 6.1 km/h 25.3 km/h 57% 0.0 mm
18:59 4.1 °C -3.0 °C 1003.9 hPa SSE 6.4 km/h 23.8 km/h 58% 0.0 mm
19:04 4.1 °C -3.0 °C 1003.9 hPa South 13.7 km/h 23.8 km/h 59% 0.0 mm
19:09 4.1 °C -3.0 °C 1003.9 hPa SSE 9.3 km/h 24.8 km/h 59% 0.0 mm
19:14 4.1 °C -3.0 °C 1005.0 hPa SSE 10.5 km/h 24.8 km/h 59% 0.0 mm
19:19 4.0 °C -3.0 °C 1005.0 hPa South 11.6 km/h 19.8 km/h 59% 0.0 mm
19:24 4.0 °C -3.0 °C 1005.0 hPa SSE 10.1 km/h 24.5 km/h 59% 0.0 mm
19:29 4.0 °C -3.0 °C 1005.0 hPa South 13.0 km/h 24.5 km/h 59% 0.0 mm
19:34 4.0 °C -3.0 °C 1005.0 hPa SE 12.6 km/h 23.3 km/h 58% 0.0 mm
19:39 3.9 °C -3.0 °C 1005.0 hPa South 16.6 km/h 21.2 km/h 59% 0.0 mm
19:44 3.8 °C -3.0 °C 1006.0 hPa ESE 12.6 km/h 21.2 km/h 59% 0.0 mm
19:49 3.8 °C -3.0 °C 1006.0 hPa SSE 17.7 km/h 21.2 km/h 59% 0.0 mm
19:54 3.8 °C -3.0 °C 1006.0 hPa SSW 10.5 km/h 21.2 km/h 59% 0.0 mm
19:59 3.8 °C -3.0 °C 1006.0 hPa SE 11.9 km/h 21.2 km/h 59% 0.0 mm
20:04 3.7 °C -3.0 °C 1006.0 hPa South 11.9 km/h 20.9 km/h 59% 0.0 mm
20:09 3.7 °C -3.0 °C 1006.0 hPa South 20.6 km/h 20.6 km/h 59% 0.0 mm
20:14 3.7 °C -3.0 °C 1006.0 hPa SSE 10.5 km/h 20.6 km/h 59% 0.0 mm
20:19 3.6 °C -3.0 °C 1006.0 hPa SSE 14.0 km/h 20.1 km/h 59% 0.0 mm
20:24 3.5 °C -3.0 °C 1006.0 hPa SSE 10.1 km/h 19.8 km/h 60% 0.0 mm
20:29 3.4 °C -3.0 °C 1006.0 hPa SSE 9.7 km/h 19.8 km/h 60% 0.0 mm
20:35 3.4 °C -3.0 °C 1006.0 hPa SSE 9.3 km/h 17.7 km/h 61% 0.0 mm
20:40 3.3 °C -3.0 °C 1006.0 hPa South 2.6 km/h 17.7 km/h 62% 0.0 mm
20:45 3.3 °C -3.0 °C 1006.0 hPa South 7.9 km/h 16.6 km/h 62% 0.0 mm
20:50 3.4 °C -3.0 °C 1006.0 hPa SSW 7.2 km/h 16.6 km/h 62% 0.0 mm
20:55 3.3 °C -3.0 °C 1006.0 hPa SSE 12.2 km/h 15.8 km/h 63% 0.0 mm
21:00 3.3 °C -3.0 °C 1007.0 hPa South 10.1 km/h 14.3 km/h 64% 0.0 mm
21:05 3.3 °C -3.0 °C 1007.0 hPa South 6.1 km/h 11.9 km/h 64% 0.0 mm
21:10 3.3 °C -3.0 °C 1007.0 hPa Calm   14.0 km/h 64% 0.0 mm
21:15 3.3 °C -2.0 °C 1007.0 hPa South 10.1 km/h 14.0 km/h 66% 0.0 mm
21:20 3.2 °C -2.0 °C 1007.0 hPa SW 6.9 km/h 12.2 km/h 67% 0.0 mm
21:25 3.1 °C -2.0 °C 1007.0 hPa South 6.4 km/h 12.6 km/h 69% 0.0 mm
21:30 3.1 °C -2.0 °C 1007.0 hPa South 9.7 km/h 15.1 km/h 70% 0.0 mm
21:35 3.0 °C -1.0 °C 1007.0 hPa SSW 12.6 km/h 15.8 km/h 71% 0.0 mm
21:40 2.9 °C -1.0 °C 1007.0 hPa South 7.6 km/h 15.8 km/h 72% 0.0 mm
21:45 2.8 °C -1.0 °C 1007.0 hPa SSW 9.3 km/h 16.3 km/h 73% 0.0 mm
21:50 2.7 °C -1.0 °C 1007.0 hPa South 10.1 km/h 16.3 km/h 73% 0.0 mm
21:55 2.6 °C -1.0 °C 1007.0 hPa SSE 8.7 km/h 16.6 km/h 74% 0.0 mm
22:00 2.6 °C -1.0 °C 1007.0 hPa South 4.0 km/h 20.1 km/h 74% 0.0 mm
22:05 2.5 °C -1.0 °C 1007.0 hPa SSE 5.5 km/h 20.1 km/h 75% 0.0 mm
22:11 2.3 °C -1.0 °C 1007.0 hPa South 10.5 km/h 16.9 km/h 76% 0.0 mm
22:15 2.2 °C -1.0 °C 1007.0 hPa SSE 3.5 km/h 16.9 km/h 77% 0.0 mm
22:21 2.2 °C -1.0 °C 1007.0 hPa SSW 12.2 km/h 16.9 km/h 77% 0.0 mm
22:26 2.2 °C -1.0 °C 1007.0 hPa Calm   15.1 km/h 77% 0.0 mm
22:31 2.1 °C -1.0 °C 1006.0 hPa Calm   16.3 km/h 77% 0.0 mm
22:36 2.0 °C -1.0 °C 1006.0 hPa South 11.1 km/h 16.3 km/h 77% 0.0 mm
22:41 2.0 °C -1.0 °C 1006.0 hPa SSE 7.2 km/h 17.2 km/h 77% 0.0 mm
22:46 1.9 °C -1.0 °C 1007.0 hPa SSE 7.9 km/h 19.1 km/h 78% 0.0 mm
22:51 1.9 °C -1.0 °C 1007.0 hPa SSE 9.7 km/h 19.1 km/h 78% 0.0 mm
22:56 1.8 °C -2.0 °C 1007.0 hPa SSE 13.7 km/h 20.6 km/h 78% 0.0 mm
23:01 1.8 °C -2.0 °C 1006.0 hPa South 6.4 km/h 20.6 km/h 78% 0.0 mm
23:06 1.7 °C -2.0 °C 1006.0 hPa SSE 9.3 km/h 14.0 km/h 78% 0.0 mm
23:11 1.7 °C -2.0 °C 1006.0 hPa SSE 5.8 km/h 14.0 km/h 78% 0.0 mm
23:16 1.7 °C -2.0 °C 1006.0 hPa SSE 6.4 km/h 15.1 km/h 78% 0.0 mm
23:21 1.7 °C -2.0 °C 1006.0 hPa SSE 7.6 km/h 15.1 km/h 78% 0.0 mm
23:26 1.6 °C -2.0 °C 1006.0 hPa SSE 5.0 km/h 13.0 km/h 78% 0.0 mm
23:31 1.6 °C -2.0 °C 1007.0 hPa SSE 7.9 km/h 12.6 km/h 78% 0.0 mm
23:36 1.6 °C -2.0 °C 1007.0 hPa SSW 12.2 km/h 13.0 km/h 78% 0.0 mm
23:41 1.5 °C -2.0 °C 1007.0 hPa SSE 11.6 km/h 13.0 km/h 78% 0.0 mm
23:47 1.5 °C -2.0 °C 1007.0 hPa Calm   11.6 km/h 78% 0.0 mm
23:52 1.4 °C -2.0 °C 1007.0 hPa Calm   9.3 km/h 78% 0.0 mm
23:57 1.4 °C -2.0 °C 1007.0 hPa SSE 10.5 km/h 14.0 km/h 78% 0.0 mm
Données Historique de Météo Turbie

Mise a jour : 18/06/2018 01:39:12
Généré par Cumulus 1.9.4 (1099)